Tucumcari, NM

12:42 PM MDT on September 20, 2017 (GMT -0600)
Tucumcari Municipal

Weather History for KTCC - March, 2013

Change the Weather History Date:

Monday, March 4, 2013

  Actual Average Record
Temperature  
Mean Temperature 55 °F -  
Max Temperature 73 °F 60 °F 83 °F (1910)
Min Temperature 37 °F 28 °F 3 °F (1917)
Degree Days  
Heating Degree Days 10    
Growing Degree Days 5 (Base 50)    
Moisture  
Dew Point 23 °F    
Average Humidity 34    
Maximum Humidity 60    
Minimum Humidity 11    
Precipitation  
Precipitation 0.00 in - - ()
Sea Level Pressure  
Sea Level Pressure 29.79 in    
Wind  
Wind Speed 20 mph (NW)    
Max Wind Speed 43 mph    
Max Gust Speed 52 mph    
Visibility 8 miles    
Events      
Averages and records for this station are not official NWS values.
T = Trace of Precipitation, MM = Missing Value Source: NWS Daily Summary

Daily Weather History Graph

Daily Weather History Graph

Search for Another Location

Airport or City:

Trip Planner

Search our weather history database for the weather conditions in past years. The results will help you decide how hot, cold, wet, or windy it might be!

Date:

Astronomy

Mar. 04, 2013 Rise Set
Actual Time 6:19 AM MST 5:52 PM MST
Civil Twilight 5:54 AM MST 6:18 PM MST
Nautical Twilight 5:24 AM MST 6:47 PM MST
Astronomical Twilight 4:55 AM MST 7:17 PM MST
Moon 12:22 AM MST (3/4) 10:46 AM MST (3/4)
Length of Visible Light 12h 24m
Length of Day
11h 33m
Waning Gibbous, 51% of the Moon is Illuminated
Mar 4
Waning Gibbous
Mar 4
Last Quarter
Mar 11
New
Mar 19
First Quarter
Mar 27
Full

Hourly Weather History & Observations

Time (MST) Temp. Windchill Dew Point Humidity Pressure Visibility Wind Dir Wind Speed Gust Speed Precip Events Conditions
12:53 AM 57.0 °F - 21.0 °F 25% 29.61 in 10.0 mi West 5.8 mph - N/A   Clear
1:53 AM 55.9 °F - 23.0 °F 28% 29.60 in 10.0 mi SW 13.8 mph - N/A   Clear
2:53 AM 54.0 °F - 23.0 °F 30% 29.58 in 10.0 mi WSW 12.7 mph - N/A   Clear
3:53 AM 51.1 °F - 24.1 °F 35% 29.60 in 10.0 mi SW 11.5 mph - N/A   Clear
4:53 AM 57.0 °F - 21.0 °F 25% 29.60 in 10.0 mi WSW 16.1 mph - N/A   Clear
5:53 AM 51.1 °F - 21.9 °F 32% 29.64 in 10.0 mi SW 10.4 mph - N/A   Clear
6:53 AM 54.0 °F - 21.9 °F 29% 29.64 in 10.0 mi WSW 11.5 mph - N/A   Clear
7:53 AM 60.1 °F - 21.0 °F 22% 29.64 in 10.0 mi WSW 15.0 mph - N/A   Clear
8:53 AM 64.0 °F - 19.0 °F 18% 29.63 in 10.0 mi West 23.0 mph 31.1 mph N/A   Clear
9:53 AM 68.0 °F - 19.9 °F 16% 29.61 in 10.0 mi WSW 21.9 mph 31.1 mph N/A   Clear
10:53 AM 72.0 °F - 18.0 °F 13% 29.60 in 9.0 mi West 35.7 mph 44.9 mph N/A   Clear
11:53 AM 73.0 °F - 16.0 °F 11% 29.58 in 7.0 mi West 34.5 mph 47.2 mph N/A   Clear
12:53 PM 73.0 °F - 17.1 °F 12% 29.55 in 10.0 mi WNW 31.1 mph 38.0 mph N/A   Clear
1:53 PM 73.9 °F - 16.0 °F 11% 29.53 in 10.0 mi West 28.8 mph 36.8 mph N/A   Partly Cloudy
2:53 PM 73.0 °F - 17.1 °F 12% 29.54 in 10.0 mi West 27.6 mph 41.4 mph N/A   Clear
3:53 PM 72.0 °F - 16.0 °F 12% 29.57 in 8.0 mi West 31.1 mph 38.0 mph N/A   Clear
4:53 PM 70.0 °F - 17.1 °F 13% 29.59 in 10.0 mi WNW 23.0 mph 32.2 mph N/A   Partly Cloudy
5:53 PM 61.0 °F - 30.9 °F 32% 29.69 in 9.0 mi NE 24.2 mph 27.6 mph N/A   Partly Cloudy
6:00 PM 60.8 °F - 32.0 °F 34% 29.79 in 10.0 mi NE 21.9 mph 27.6 mph N/A   Scattered Clouds
6:53 PM 55.9 °F - 34.0 °F 44% 29.78 in 10.0 mi NE 23.0 mph 33.4 mph N/A   Clear
7:53 PM 50.0 °F - 27.0 °F 41% 29.91 in 10.0 mi NE 27.6 mph 36.8 mph N/A   Clear
8:08 PM 48.2 °F - 26.6 °F 43% 30.03 in 2.5 mi NE 42.6 mph 51.8 mph N/A   Haze
8:11 PM 46.4 °F 36.3 °F 26.6 °F 46% 30.04 in 1.8 mi NNE 36.8 mph 51.8 mph N/A   Haze
8:27 PM 41.0 °F 28.6 °F 24.8 °F 53% 30.07 in 1.8 mi NNE 38.0 mph 49.5 mph N/A   Haze
8:36 PM 41.0 °F 28.6 °F 24.8 °F 53% 30.09 in 2.5 mi NNE 38.0 mph 46.0 mph N/A   Haze
8:45 PM 39.2 °F 27.2 °F 24.8 °F 56% 30.10 in 4.0 mi NNE 31.1 mph 43.7 mph N/A   Haze
8:53 PM 39.9 °F 27.3 °F 24.1 °F 53% 30.05 in 4.0 mi NNE 36.8 mph 47.2 mph N/A   Haze
9:04 PM 37.4 °F 23.8 °F 24.8 °F 60% 30.13 in 2.5 mi NNE 36.8 mph 49.5 mph N/A   Haze
9:12 PM 37.4 °F 24.6 °F 24.8 °F 60% 30.14 in 4.0 mi NE 32.2 mph 46.0 mph N/A   Haze
9:26 PM 37.4 °F 25.2 °F 24.8 °F 60% 30.17 in 9.0 mi NE 28.8 mph 38.0 mph N/A   Mostly Cloudy
9:53 PM 37.9 °F 26.3 °F 25.0 °F 60% 30.12 in 10.0 mi NE 26.5 mph 33.4 mph N/A   Overcast
10:53 PM 37.0 °F 25.6 °F 23.0 °F 57% 30.14 in 10.0 mi NE 24.2 mph 31.1 mph N/A   Overcast